Change the Weather History Date:

Thursday, December 11, 2014

  Actual Average Record
Temperature  
Mean Temperature 71 °F 72 °F  
Max Temperature 82 °F 80 °F 88 °F (1973)
Min Temperature 60 °F 65 °F 58 °F (1989)
Degree Days  
Heating Degree Days 0 0  
Month to date heating degree days 0 0  
Since 1 July heating degree days 0 0  
Cooling Degree Days 6 7  
Month to date cooling degree days 83 86  
Year to date cooling degree days 3493 3093  
Growing Degree Days 20 (Base 50)    
Moisture  
Dew Point 64 °F    
Average Humidity 78    
Maximum Humidity 93    
Minimum Humidity 62    
Precipitation  
Precipitation 0.05 in 0.41 in 3.86 in (1954)
Month to date precipitation 1.16 4.44  
Year to date precipitation 110.30 119.59  
Snow  
Snow 0.00 in - - ()
Month to date snowfall 0.0  
Since 1 July snowfall 0.0  
Snow Depth 0.00 in    
Sea Level Pressure  
Sea Level Pressure 30.08 in    
Wind  
Wind Speed 6 mph (West)    
Max Wind Speed 16 mph    
Max Gust Speed 19 mph    
Visibility 10 miles    
Events Rain    
T = Trace of Precipitation, MM = Missing Value Source: NWS Daily Summary

Daily Weather History Graph

Daily Weather History Graph

Search for Another Location

Airport or City:

Trip Planner

Search our weather history database for the weather conditions in past years. The results will help you decide how hot, cold, wet, or windy it might be!

Date:

Astronomy

Dec. 11, 2014 Rise Set
Actual Time 6:44 AM HST 5:42 PM HST
Civil Twilight 6:20 AM HST 6:06 PM HST
Nautical Twilight 5:53 AM HST 6:33 PM HST
Astronomical Twilight 5:26 AM HST 7:00 PM HST
Moon 10:33 PM HST (12/11) 10:40 AM HST (12/11)
Length of Visible Light 11h 45m
Length of Day
10h 57m
Waning Gibbous, 74% of the Moon is Illuminated
Dec 11
Waning Gibbous
Dec 14
Last Quarter
Dec 21
New
Dec 28
First Quarter
Jan 4
Full

Hourly Weather History & Observations

Time (HST) Temp. Heat Index Dew Point Humidity Pressure Visibility Wind Dir Wind Speed Gust Speed Precip Events Conditions
12:53 AM 64.9 °F - 55.9 °F 73% 30.11 in 10.0 mi SW 6.9 mph - N/A   Clear
1:53 AM 64.9 °F - 55.0 °F 70% 30.09 in 10.0 mi SW 8.1 mph - N/A   Clear
2:53 AM 64.9 °F - 52.0 °F 63% 30.08 in 10.0 mi SW 8.1 mph - N/A   Scattered Clouds
3:53 AM 63.0 °F - 54.0 °F 72% 30.08 in 10.0 mi Calm Calm - N/A   Clear
4:41 AM 61.0 °F - 55.0 °F 81% 30.09 in 10.0 mi SW 5.8 mph - N/A   Scattered Clouds
4:53 AM 63.0 °F - 55.9 °F 78% 30.09 in 10.0 mi SW 5.8 mph - N/A   Mostly Cloudy
5:10 AM 64.9 °F - 55.9 °F 73% 30.09 in 10.0 mi SW 3.5 mph - N/A   Overcast
5:53 AM 66.0 °F - 57.9 °F 75% 30.10 in 10.0 mi SW 3.5 mph - N/A   Overcast
6:53 AM 68.0 °F - 60.1 °F 76% 30.11 in 10.0 mi SW 4.6 mph - N/A   Overcast
7:53 AM 71.1 °F - 61.0 °F 70% 30.13 in 10.0 mi Calm Calm - N/A   Mostly Cloudy
8:53 AM 75.0 °F - 64.0 °F 69% 30.13 in 10.0 mi West 4.6 mph - N/A   Overcast
9:53 AM 77.0 °F - 64.9 °F 66% 30.14 in 10.0 mi NNW 3.5 mph - N/A   Overcast
10:53 AM 79.0 °F - 68.0 °F 69% 30.12 in 10.0 mi NNE 8.1 mph - N/A   Mostly Cloudy
11:53 AM 80.1 °F 82.3 °F 66.9 °F 64% 30.08 in 10.0 mi NE 9.2 mph - N/A   Mostly Cloudy
12:53 PM 77.0 °F - 68.0 °F 74% 30.06 in 10.0 mi ENE 13.8 mph - N/A   Overcast
1:53 PM 80.1 °F 82.1 °F 66.0 °F 62% 30.03 in 10.0 mi North 5.8 mph - N/A   Overcast
2:53 PM 77.0 °F - 66.0 °F 69% 30.02 in 10.0 mi North 4.6 mph - N/A   Overcast
3:53 PM 77.0 °F - 66.9 °F 71% 30.02 in 10.0 mi NNW 3.5 mph - N/A   Mostly Cloudy
4:53 PM 78.1 °F - 68.0 °F 71% 30.04 in 10.0 mi North 4.6 mph - N/A   Mostly Cloudy
5:37 PM 75.9 °F - 68.0 °F 76% 30.05 in 10.0 mi NNE 4.6 mph - N/A   Mostly Cloudy
5:53 PM 75.9 °F - 68.0 °F 76% 30.05 in 10.0 mi NNE 3.5 mph - 0.00 in Rain Light Rain
6:53 PM 73.9 °F - 70.0 °F 87% 30.06 in 10.0 mi Calm Calm - 0.00 in   Overcast
7:29 PM 73.9 °F - 70.0 °F 87% 30.08 in 10.0 mi West 5.8 mph - N/A   Overcast
7:41 PM 73.0 °F - 70.0 °F 90% 30.08 in 10.0 mi SW 3.5 mph - N/A   Overcast
7:53 PM 73.9 °F - 70.0 °F 87% 30.08 in 10.0 mi Variable 3.5 mph - N/A   Overcast
8:51 PM 73.4 °F - 69.8 °F 88% 30.09 in 10.0 mi WSW 5.8 mph - N/A   Overcast
8:53 PM 73.0 °F - 70.0 °F 90% 30.09 in 10.0 mi SW 6.9 mph - N/A   Overcast
9:12 PM 72.0 °F - 69.1 °F 91% 30.09 in 10.0 mi SW 4.6 mph - N/A   Overcast
9:53 PM 72.0 °F - 69.1 °F 91% 30.09 in 10.0 mi WSW 5.8 mph - N/A   Overcast
10:13 PM 71.1 °F - 66.9 °F 87% 30.10 in 10.0 mi Variable 5.8 mph - N/A   Overcast
10:38 PM 70.0 °F - 66.0 °F 87% 30.10 in 10.0 mi WSW 5.8 mph - N/A   Overcast
10:45 PM 70.0 °F - 66.0 °F 87% 30.10 in 10.0 mi SW 5.8 mph - N/A   Overcast
10:53 PM 70.0 °F - 66.0 °F 87% 30.09 in 10.0 mi WSW 6.9 mph - N/A   Overcast
11:41 PM 68.0 °F - 66.0 °F 93% 30.10 in 3.0 mi WSW 5.8 mph - 0.02 in Rain Light Rain
11:49 PM 68.0 °F - 66.2 °F 94% 30.10 in 4.0 mi WSW 5.8 mph - 0.03 in Rain Light Rain
11:53 PM 66.9 °F - 64.9 °F 93% 30.09 in 4.0 mi WSW 10.4 mph - 0.03 in Rain Rain